Traverse City, MI

6:36 PM EDT on June 24, 2017 (GMT -0400)
Cherry Capital

Weather History for KTVC - June, 2013

Change the Weather History Date:

Friday, June 21, 2013

  Actual Average Record
Temperature  
Mean Temperature 72 °F 66 °F  
Max Temperature 85 °F 77 °F 97 °F (1988)
Min Temperature 58 °F 54 °F 30 °F (1923)
Degree Days  
Heating Degree Days 0 3  
Month to date heating degree days 102 96  
Since 1 June heating degree days 102 96  
Since 1 July heating degree days 7077 7532  
Cooling Degree Days 7 3  
Month to date cooling degree days 23 43  
Year to date cooling degree days 65 63  
Since 1 June cooling degree days 23 43  
Growing Degree Days 22 (Base 50)    
Moisture  
Dew Point 59 °F    
Average Humidity 67    
Maximum Humidity 87    
Minimum Humidity 46    
Precipitation  
Precipitation 0.00 in 0.12 in 0.83 in (1943)
Month to date precipitation 1.25 2.11  
Year to date precipitation 13.63 13.66  
Sea Level Pressure  
Sea Level Pressure 30.03 in    
Wind  
Wind Speed 7 mph (SSW)    
Max Wind Speed 17 mph    
Max Gust Speed 31 mph    
Visibility 10 miles    
Events      
T = Trace of Precipitation, MM = Missing Value Source: NWS Daily Summary

Daily Weather History Graph

Daily Weather History Graph

Search for Another Location

Airport or City:

Trip Planner

Search our weather history database for the weather conditions in past years. The results will help you decide how hot, cold, wet, or windy it might be!

Date:

Astronomy

Jun. 21, 2013 Rise Set
Actual Time 5:56 AM EDT 9:31 PM EDT
Civil Twilight 5:19 AM EDT 10:08 PM EDT
Nautical Twilight 4:30 AM EDT 10:58 PM EDT
Astronomical Twilight 3:25 AM EDT 12:02 AM EDT
Moon 7:38 PM EDT (6/21) 4:15 AM EDT (6/21)
Length of Visible Light 16h 49m
Length of Day
15h 35m
Waxing Gibbous, 95% of the Moon is Illuminated
Jun 21
Waxing Gibbous
Jun 23
Full
Jun 30
Last Quarter
Jul 8
New
Jul 15
First Quarter

Hourly Weather History & Observations

Time (EDT) Temp. Heat Index Dew Point Humidity Pressure Visibility Wind Dir Wind Speed Gust Speed Precip Events Conditions
12:53 AM 61.0 °F - 55.9 °F 83% 30.15 in 10.0 mi Calm Calm - N/A   Clear
1:53 AM 60.1 °F - 55.9 °F 86% 30.14 in 10.0 mi Calm Calm - N/A   Clear
2:53 AM 59.0 °F - 55.9 °F 90% 30.14 in 10.0 mi Calm Calm - N/A   Clear
3:53 AM 60.1 °F - 55.0 °F 83% 30.12 in 10.0 mi Calm Calm - N/A   Clear
4:53 AM 63.0 °F - 54.0 °F 72% 30.09 in 10.0 mi South 3.5 mph - N/A   Partly Cloudy
5:53 AM 64.0 °F - 54.0 °F 70% 30.09 in 10.0 mi South 3.5 mph - N/A   Partly Cloudy
6:53 AM 64.0 °F - 53.1 °F 67% 30.11 in 10.0 mi South 3.5 mph - N/A   Overcast
7:53 AM 66.9 °F - 54.0 °F 63% 30.10 in 10.0 mi Variable 4.6 mph - N/A   Overcast
8:53 AM 70.0 °F - 55.0 °F 59% 30.07 in 10.0 mi Calm Calm - N/A   Overcast
9:53 AM 73.9 °F - 59.0 °F 59% 30.07 in 10.0 mi SSE 3.5 mph - N/A   Overcast
10:53 AM 75.9 °F - 63.0 °F 64% 30.08 in 10.0 mi South 4.6 mph - N/A   Overcast
11:53 AM 79.0 °F - 63.0 °F 58% 30.07 in 10.0 mi SSW 8.1 mph - N/A   Overcast
12:53 PM 82.0 °F 83.1 °F 63.0 °F 52% 30.04 in 10.0 mi SSW 8.1 mph 18.4 mph N/A   Overcast
1:53 PM 81.0 °F 82.2 °F 63.0 °F 54% 30.01 in 10.0 mi SSW 10.4 mph 25.3 mph N/A   Overcast
2:53 PM 82.0 °F 83.0 °F 62.1 °F 51% 29.92 in 10.0 mi SSE 13.8 mph 25.3 mph N/A   Overcast
3:53 PM 82.0 °F 83.1 °F 63.0 °F 52% 29.94 in 10.0 mi South 10.4 mph 21.9 mph N/A   Overcast
4:53 PM 84.0 °F 85.4 °F 64.0 °F 51% 29.93 in 10.0 mi SW 9.2 mph 17.3 mph N/A   Mostly Cloudy
5:53 PM 84.0 °F 85.4 °F 64.0 °F 51% 29.92 in 10.0 mi SSW 12.7 mph 25.3 mph N/A   Mostly Cloudy
6:53 PM 84.9 °F 85.9 °F 63.0 °F 48% 29.92 in 10.0 mi SW 18.4 mph 29.9 mph N/A   Mostly Cloudy
7:53 PM 82.9 °F 82.8 °F 59.0 °F 44% 29.93 in 10.0 mi SW 13.8 mph 20.7 mph N/A   Scattered Clouds
8:53 PM 80.1 °F 80.7 °F 59.0 °F 48% 29.94 in 10.0 mi WSW 8.1 mph - N/A   Scattered Clouds
9:53 PM 75.9 °F - 60.1 °F 58% 29.96 in 10.0 mi WSW 11.5 mph 18.4 mph N/A   Scattered Clouds
10:53 PM 73.9 °F - 61.0 °F 64% 29.99 in 10.0 mi SW 5.8 mph - N/A   Overcast
11:53 PM 72.0 °F - 61.0 °F 68% 29.99 in 10.0 mi WSW 6.9 mph - N/A   Overcast